Theta_e
318 310 308 304 295 291 286 288 290 292 292 298 298 296 296 299 297 291 311 324 339 342 345 347 350 352 352 352 352 350 350 350 347 345 343 343 341 340 339 337 336 335 337 339 340 341 341 342 344
313 310 305 296 290 285 286 288 291 293 299 301 299 299 301 300 309 314 316 333 341 344 346 346 348 352 352 351 351 350 350 350 347 344 342 342 339 339 338 336 334 334 335 337 338 340 339 341 344
310 306 301 292 286 286 286 290 292 294 299 294 299 303 303 304 309 312 318 338 342 343 345 345 347 351 351 352 351 351 350 350 348 344 342 340 339 337 336 333 332 331 332 334 337 339 339 341 341
305 302 295 290 288 290 292 292 293 296 295 296 301 300 305 312 312 317 327 340 340 342 344 343 347 350 351 351 350 350 349 348 348 343 342 340 338 336 334 332 329 329 330 332 335 335 337 339 337
299 296 290 286 287 291 290 293 294 295 292 294 297 296 302 309 312 322 330 339 337 339 343 343 345 348 349 349 350 350 349 348 347 344 341 340 338 336 335 331 327 326 326 328 331 331 334 334 332
296 293 287 285 286 290 293 293 294 292 292 295 297 302 304 304 313 318 331 334 335 337 341 342 339 341 344 346 346 348 348 347 346 344 341 339 338 336 335 333 326 324 323 326 328 328 328 328 325
294 290 286 286 286 289 292 294 292 293 294 295 300 299 300 302 313 318 324 327 330 334 338 340 341 338 337 341 342 343 345 345 344 343 342 340 338 337 335 334 327 325 323 322 323 323 323 322 320
292 290 285 285 287 289 293 294 293 294 293 296 297 295 296 306 316 314 314 316 316 320 326 334 338 337 339 338 335 337 339 340 341 340 336 334 334 333 332 330 330 327 326 324 322 321 320 318 316
291 287 284 286 288 291 292 292 292 293 294 293 296 295 298 307 311 310 309 309 310 311 312 319 336 334 335 336 335 332 334 335 335 334 330 329 333 330 328 328 330 330 327 324 321 318 316 315 314
290 285 287 289 289 293 293 292 294 294 292 292 293 296 298 309 308 311 311 313 310 308 308 310 315 326 334 337 338 338 337 336 338 337 333 333 332 330 329 324 326 328 326 324 322 319 314 308 303
288 287 290 290 293 293 293 291 294 293 291 294 295 296 298 306 308 311 311 311 310 306 307 309 310 311 320 329 335 336 332 332 332 331 332 332 330 328 327 324 322 320 315 312 312 310 308 306 304
291 292 291 293 295 293 292 293 292 293 295 294 296 297 297 301 306 308 309 307 303 304 306 308 309 310 310 313 327 334 332 332 333 331 331 328 328 327 325 323 321 318 316 313 312 310 308 307 306
291 291 293 294 294 292 294 294 293 293 295 295 294 297 297 298 302 302 304 302 301 303 305 306 307 308 310 310 315 331 331 331 334 331 329 329 327 325 324 322 320 318 316 313 311 309 306 305 304
292 293 293 294 294 294 293 291 292 294 294 294 295 295 296 297 299 297 298 299 299 302 303 305 307 310 311 311 319 326 327 327 330 332 330 328 328 325 323 320 317 316 314 312 310 308 305 303 300
293 291 292 292 292 294 293 291 292 293 292 294 294 294 294 295 296 298 300 298 299 301 302 304 306 310 310 310 319 321 321 322 322 322 328 328 327 324 321 318 315 312 312 309 306 304 304 301 299
290 289 287 290 292 292 293 288 294 293 293 294 292 292 293 294 295 295 296 297 299 300 301 304 310 309 314 317 317 316 316 316 316 318 321 325 324 322 319 315 313 311 308 305 303 302 300 298 296
287 283 284 289 292 290 290 289 292 291 291 292 292 291 292 292 293 294 294 296 298 299 301 303 306 308 312 312 311 311 311 311 312 313 314 316 318 318 316 312 310 306 304 301 300 298 299 295 292
283 283 284 285 288 288 288 289 292 292 291 292 292 291 291 292 294 296 293 294 297 298 300 302 306 310 309 306 305 305 304 304 306 308 309 310 311 311 310 307 305 301 297 296 297 296 292 293 290
286 284 284 286 291 289 288 288 292 293 290 290 291 291 292 293 297 294 293 294 296 297 299 300 306 308 305 305 304 304 301 300 299 301 303 303 305 307 305 303 299 296 295 295 295 294 293 288 288
286 285 284 287 289 289 288 288 292 293 291 294 295 294 294 295 292 291 291 294 295 297 302 303 306 305 305 305 302 300 299 295 296 296 296 299 299 300 301 299 295 292 292 291 292 292 284 283 283
286 285 284 286 287 287 285 284 287 291 291 293 293 296 296 296 295 291 290 293 295 296 301 303 305 304 303 300 296 294 295 294 293 293 293 292 294 294 295 294 291 287 290 290 286 287 287 282 280
284 289 288 287 285 281 285 280 287 289 291 291 294 294 295 295 292 291 291 292 295 296 301 303 305 304 301 297 298 298 299 297 294 293 290 290 291 290 289 288 286 285 284 285 283 283 282 282 280
288 290 288 286 283 281 280 280 284 286 288 291 295 296 293 293 292 291 291 293 295 296 300 302 305 304 298 298 299 300 299 291 291 289 288 287 287 287 285 284 283 283 282 281 281 280 280 280 279
291 287 286 283 282 278 282 283 283 285 289 291 293 294 292 290 290 290 290 292 293 296 300 301 303 300 297 298 298 298 291 290 288 287 287 286 286 284 282 282 281 281 281 281 280 280 280 280 280
288 286 280 278 276 279 281 280 287 290 291 292 294 293 290 290 288 288 289 290 292 296 299 302 302 297 296 296 296 295 292 290 291 287 287 284 284 283 280 280 280 280 280 281 281 281 280 280 280
286 286 280 273 274 278 281 280 286 290 292 291 291 290 289 291 289 287 288 290 292 295 299 302 299 297 296 296 295 293 292 292 291 289 287 286 285 283 280 280 280 280 281 280 281 281 280 280 280
285 284 288 282 270 274 281 284 288 290 290 292 291 289 289 289 289 286 288 289 290 294 299 300 298 296 295 294 292 291 291 290 289 287 286 284 283 282 280 281 280 280 280 280 280 280 279 279 279
288 289 283 281 273 270 279 280 284 288 290 290 290 291 291 288 286 286 288 289 290 293 295 295 296 294 294 293 292 290 290 289 287 285 284 283 282 282 281 280 280 279 279 279 279 279 279 278 278
285 284 284 285 280 275 272 282 287 289 290 290 291 290 290 288 287 286 287 288 289 290 290 291 293 291 290 290 289 289 288 287 285 284 283 283 282 280 280 280 280 280 279 279 279 279 278 278 278
286 285 286 282 278 280 279 285 290 290 290 290 289 289 288 288 287 285 287 287 287 287 287 289 290 291 289 288 288 288 287 285 284 284 283 282 281 280 280 280 279 279 279 279 279 278 278 278 277
Wind_Speed
5 4 3 6 6 6 1 4 1 4 2 0 3 5 7 2 4 4 3 5 4 9 8 8 12 12 13 13 11 12 13 15 15 14 13 14 13 15 15 14 15 14 15 16 16 14 15 14 14
3 2 6 3 6 4 5 3 4 4 5 7 5 3 3 1 1 1 1 4 7 8 7 7 11 12 13 12 11 12 13 15 15 13 14 13 14 15 15 15 15 16 15 14 15 15 15 15 17
2 5 4 6 4 4 5 4 5 2 7 1 4 3 4 4 1 3 2 6 8 7 7 7 11 12 12 12 11 11 11 14 15 13 14 13 14 15 15 14 15 15 15 15 16 16 16 17 19
2 5 5 6 3 3 3 5 5 6 4 1 4 4 2 2 1 2 5 7 8 7 6 9 11 12 12 11 11 11 11 13 14 14 14 14 14 14 14 14 15 15 15 16 16 17 17 18 19
5 4 5 3 3 3 3 3 7 6 1 2 3 4 2 2 3 3 7 7 7 6 7 8 11 12 12 12 11 12 12 12 14 14 14 14 14 14 14 15 15 15 15 16 16 17 17 18 19
5 4 5 2 3 3 2 5 6 3 3 2 4 7 5 2 2 0 4 5 4 7 8 9 10 11 11 11 11 11 12 12 12 14 14 14 13 14 14 15 15 15 16 16 16 17 17 18 19
7 5 5 4 3 2 4 8 5 7 5 5 7 6 3 3 3 2 5 5 4 4 4 6 7 9 11 12 11 11 11 12 13 14 13 12 12 12 13 13 15 15 16 17 17 17 18 18 19
6 6 4 3 5 5 4 6 3 6 5 3 3 5 5 5 6 6 6 5 5 4 5 3 6 5 5 6 10 11 11 11 12 12 12 11 11 11 11 10 13 15 16 17 17 17 18 19 19
3 6 3 5 7 5 3 4 2 1 6 2 3 3 3 4 8 6 4 3 3 3 4 4 3 6 5 6 6 8 10 12 15 13 13 10 7 7 6 8 13 15 16 17 18 18 18 18 20
6 5 10 5 5 3 4 4 7 4 2 3 4 4 2 5 6 8 7 7 4 4 2 3 3 5 5 3 4 4 5 5 7 8 9 5 5 5 6 8 11 14 15 17 18 19 17 13 6
3 5 5 3 3 2 3 1 6 7 4 9 11 7 7 6 7 8 7 7 7 4 2 2 2 2 2 2 3 2 3 3 4 5 6 6 5 5 4 4 4 4 8 5 8 7 6 8 6
1 1 4 1 2 2 2 2 4 7 8 1 9 6 7 10 11 11 10 8 6 5 5 3 1 1 1 1 2 3 4 5 5 6 7 7 5 5 4 4 4 4 3 6 6 5 6 8 8
1 1 2 2 0 2 1 6 6 8 8 1 3 8 12 9 8 5 6 6 6 6 6 5 2 2 2 3 2 2 3 4 8 7 7 6 7 6 4 4 4 4 5 5 6 6 6 8 9
0 2 4 3 2 3 4 3 2 6 4 4 6 10 10 11 12 4 6 8 8 6 7 5 4 4 3 3 3 2 3 3 6 7 8 8 7 7 5 5 4 5 5 5 5 6 7 8 9
2 4 7 4 3 5 4 7 11 6 2 7 9 9 9 11 7 13 10 9 8 6 6 6 5 4 5 5 3 3 2 4 3 4 7 9 9 9 8 6 5 5 5 9 7 7 7 10 9
2 4 3 3 4 2 5 12 7 2 7 12 9 8 9 10 11 8 8 8 8 6 8 6 4 5 5 6 3 3 3 3 3 4 4 8 8 10 9 7 6 4 6 7 5 6 9 8 8
5 4 4 9 6 2 4 9 3 0 5 9 9 9 9 9 10 11 10 9 8 8 7 6 6 6 6 4 4 4 5 3 3 4 4 7 9 9 9 7 7 8 6 6 6 5 9 9 8
6 4 4 5 2 2 4 15 11 6 5 11 10 9 11 13 21 12 11 9 8 8 7 6 5 6 7 4 4 4 4 3 3 3 4 7 7 10 9 7 8 8 7 7 6 11 5 8 9
4 4 5 5 4 4 9 9 16 9 6 11 12 12 14 16 18 9 11 9 8 7 8 8 9 7 7 4 3 3 4 1 3 4 5 7 7 9 11 9 8 6 9 10 10 10 14 5 7
2 2 6 6 4 5 8 13 14 14 10 13 17 16 17 14 9 9 10 11 12 11 12 10 11 10 8 5 3 3 4 3 3 2 4 5 7 7 9 9 9 7 9 10 9 11 5 3 1
6 6 5 9 4 5 6 8 10 9 7 10 13 18 15 18 17 10 11 14 11 13 15 13 12 12 8 8 7 5 6 4 3 3 3 2 7 6 7 8 8 7 8 9 6 8 9 5 3
7 9 6 4 2 5 1 10 6 6 11 8 16 15 17 15 8 8 13 14 17 16 12 16 13 13 9 11 8 10 7 6 3 3 3 3 4 7 6 8 7 7 5 8 5 4 4 6 6
6 5 6 3 4 3 1 6 5 1 7 15 19 15 11 8 9 11 14 15 12 11 14 13 12 12 11 11 11 10 8 4 5 6 7 5 4 6 6 6 7 7 5 6 8 7 7 4 5
6 5 5 4 1 5 12 9 4 7 9 7 8 11 6 4 7 7 6 7 8 9 13 12 14 12 12 12 12 12 12 11 9 8 7 5 4 5 5 6 6 6 7 7 6 6 7 6 5
3 5 3 5 2 9 2 5 10 10 10 9 11 6 4 4 2 6 8 8 10 14 14 13 14 13 12 12 11 10 12 13 15 13 10 11 7 5 5 5 6 5 6 7 7 8 8 6 6
10 9 8 8 5 6 1 10 9 9 10 7 8 5 1 6 5 4 6 6 9 12 16 16 15 13 13 12 11 9 11 8 8 9 8 7 9 9 7 6 6 7 7 7 7 7 6 6 6
6 8 5 4 2 2 7 9 9 9 11 11 5 4 5 8 5 5 6 7 7 9 16 15 15 13 14 13 11 11 11 11 10 9 8 6 6 8 9 9 9 7 7 7 7 7 6 6 5
6 7 4 1 4 6 6 7 9 6 8 9 4 6 4 3 2 4 6 7 6 7 9 8 10 11 11 11 11 11 12 12 11 10 10 10 9 11 11 9 8 7 6 7 8 6 5 7 4
4 5 1 4 6 6 4 10 9 8 8 6 3 3 4 4 4 5 5 5 7 6 7 7 11 12 12 11 9 10 10 10 11 11 11 11 11 10 11 10 10 9 8 7 8 7 7 8 6
0 5 7 6 5 5 2 19 4 4 3 2 2 3 4 4 5 6 7 7 7 7 7 10 10 12 11 9 9 11 11 12 12 11 11 11 12 10 11 10 10 8 8 7 8 9 7 8 8
Wind_Direction
320 353 60 41 57 66 220 255 270 147 173 174 91 138 174 84 156 201 262 184 117 144 151 145 135 139 139 138 136 134 127 118 112 102 94 87 82 79 79 75 74 74 72 74 75 72 77 61 74
326 40 42 75 87 78 263 256 212 189 163 136 85 75 62 142 200 183 114 175 159 144 142 139 138 141 140 138 137 138 133 125 117 112 102 94 87 82 79 74 71 70 71 74 77 77 75 69 76
166 45 81 91 110 171 191 208 197 135 143 169 103 56 152 174 236 185 212 149 133 138 141 144 144 144 143 142 136 138 135 132 124 114 103 95 91 88 83 79 76 75 74 75 75 74 72 76 79
64 18 39 82 189 236 213 187 169 127 254 101 120 91 299 265 197 283 133 145 135 147 145 152 153 150 148 143 138 142 140 133 122 118 111 104 96 88 85 80 78 75 76 77 79 76 75 81 78
35 54 56 73 289 269 251 190 147 161 162 137 167 190 201 288 306 319 159 154 155 167 155 162 166 159 157 151 147 144 144 139 129 122 115 107 101 97 89 83 81 78 76 76 79 78 77 79 76
44 94 64 211 266 282 246 159 143 173 159 156 99 146 212 322 223 31 155 144 173 176 167 171 173 165 163 157 151 145 148 145 136 124 122 117 106 97 92 86 85 83 81 81 79 78 77 76 74
113 84 186 177 228 295 210 148 168 175 165 230 151 138 258 270 184 113 120 104 96 129 146 162 167 170 171 164 154 150 148 148 141 131 127 119 112 102 92 87 88 85 81 80 80 79 79 77 75
101 90 117 213 194 236 203 177 131 160 206 105 166 198 230 211 145 109 83 89 85 82 91 109 154 167 146 151 151 148 147 147 142 136 128 128 116 109 102 91 92 88 82 79 78 78 78 77 75
123 68 186 215 155 238 164 169 138 81 118 227 207 175 277 142 123 109 106 82 82 64 62 51 128 138 155 164 174 163 160 159 153 147 146 142 131 122 103 102 94 89 86 82 80 77 75 73 73
85 116 212 193 199 220 200 183 173 151 133 246 277 248 101 141 156 160 173 170 168 158 110 89 72 116 142 154 160 172 149 155 156 154 151 133 124 122 112 101 92 93 94 89 84 80 75 69 65
149 177 193 230 224 198 193 237 172 138 225 217 208 192 170 172 184 184 193 184 182 163 148 127 125 96 116 175 163 174 143 144 133 134 145 134 128 126 118 112 105 91 86 84 81 76 67 69 70
113 197 176 214 237 136 189 137 217 189 220 224 228 178 164 182 196 197 196 193 173 172 180 174 96 19 266 300 233 185 157 163 161 157 148 139 140 130 132 126 113 102 86 93 87 87 86 76 71
96 294 271 301 92 255 310 244 232 244 235 50 132 166 188 199 214 219 198 200 189 194 190 194 191 225 243 257 266 234 166 177 170 163 155 150 152 144 136 124 114 105 103 101 100 90 84 74 72
354 299 290 286 244 249 204 275 124 263 161 181 185 208 206 205 205 193 201 209 201 194 200 191 212 216 219 226 220 190 145 139 160 170 168 157 156 144 140 122 104 103 100 95 95 102 97 81 82
43 332 331 237 207 240 169 284 235 228 144 224 222 226 226 227 202 215 209 205 189 202 194 201 203 214 206 211 165 145 138 129 126 122 151 156 155 148 137 124 105 115 110 104 99 90 91 93 83
46 46 349 291 139 302 149 272 271 227 176 241 236 239 238 236 228 231 219 207 196 182 191 188 193 192 183 190 141 129 113 106 120 123 129 146 145 143 135 130 124 118 111 110 106 107 96 89 89
5 240 214 316 196 114 176 274 262 166 203 261 253 242 243 257 250 232 215 207 196 191 182 188 190 184 139 119 107 103 100 94 94 100 110 120 131 135 130 130 140 133 122 108 117 86 113 108 97
205 217 234 237 225 183 229 264 269 247 208 243 253 249 243 240 242 226 207 201 187 184 186 179 183 157 129 111 101 79 80 70 58 79 110 111 123 126 124 119 131 119 122 110 112 115 82 114 117
140 195 232 242 243 202 231 251 268 267 242 259 250 245 243 236 246 205 198 183 180 187 180 181 167 164 149 146 145 141 116 139 72 60 112 106 121 133 131 127 130 150 134 135 134 123 123 100 126
170 268 266 276 250 196 270 257 258 262 235 237 246 241 239 238 223 205 192 184 187 186 188 185 185 169 173 161 126 125 124 78 93 88 67 120 122 122 136 146 138 137 125 131 142 140 121 105 258
213 199 228 229 312 241 324 267 237 264 252 259 254 245 245 232 236 207 190 196 186 191 189 187 177 173 177 145 116 99 89 90 98 103 113 95 121 134 127 134 139 126 132 150 148 149 135 142 51
251 202 198 221 47 255 25 291 236 247 256 240 258 241 244 239 231 191 194 195 199 198 178 188 179 176 166 157 156 170 163 159 162 137 124 113 119 117 120 128 123 127 129 142 141 147 142 127 138
233 135 167 174 186 2 273 278 237 147 264 258 256 257 244 239 213 209 200 205 198 172 177 181 177 178 166 171 171 170 161 110 124 118 122 110 101 106 114 121 123 126 122 128 137 136 141 123 135
137 84 58 59 101 266 198 189 173 174 210 252 268 268 288 262 238 226 198 164 159 158 171 174 179 176 171 174 174 175 151 150 143 146 145 145 134 118 110 113 119 124 130 136 131 123 120 116 103
144 104 313 325 353 244 73 219 256 283 243 226 248 288 47 26 220 212 182 168 161 173 176 177 177 178 175 178 177 167 161 165 167 163 159 153 149 145 150 128 130 127 128 121 125 115 115 123 121
198 162 167 220 220 278 14 241 250 235 263 257 265 311 38 276 264 237 205 180 172 177 185 181 174 174 177 178 177 169 162 163 165 164 161 168 162 152 146 131 132 134 129 124 112 108 105 108 115
197 205 173 76 108 360 223 282 283 266 288 278 239 143 254 263 279 228 192 184 177 183 192 187 173 175 177 177 166 168 165 161 164 153 157 145 144 140 143 143 144 136 125 121 118 119 113 113 107
156 169 96 343 203 257 269 266 232 260 243 258 300 276 306 300 247 202 196 187 185 182 178 176 178 177 175 174 175 171 167 160 155 148 157 156 151 150 151 141 137 131 123 121 118 109 103 112 106
143 193 126 137 153 186 301 263 209 223 220 234 198 156 267 263 215 214 213 188 176 165 168 171 173 163 171 170 166 167 166 160 159 163 161 161 156 153 153 147 145 142 133 123 114 121 130 132 136
57 200 154 145 218 241 175 265 151 176 96 195 226 223 237 220 200 187 187 178 179 186 187 183 175 174 177 169 164 168 166 161 166 171 167 158 160 154 154 143 141 136 139 138 141 146 152 153 154